Weather History for Sioux City, IA

Change the Weather History Date:

Sunday, December 8, 2013

  Actual Average Record
Temperature  
Mean Temperature 9 °F 24 °F  
Max Temperature 16 °F 34 °F 64 °F (1970)
Min Temperature 2 °F 15 °F -19 °F (1978)
Degree Days  
Heating Degree Days 56 41  
Month to date heating degree days 373 315  
Since 1 July heating degree days 1797 1791  
Cooling Degree Days 0 0  
Month to date cooling degree days 0 0  
Year to date cooling degree days 960 869  
Moisture  
Dew Point 7 °F    
Average Humidity 84    
Maximum Humidity 95    
Minimum Humidity 73    
Precipitation  
Precipitation 0.13 in 0.03 in 0.47 in (2009)
Month to date precipitation 0.13 0.25  
Year to date precipitation 26.68 27.19  
Snow  
Snow 1.40 in 0.30 in 8.50 in (2009)
Month to date snowfall 1.6 2.1  
Since 1 July snowfall 2.5 7.5  
Snow Depth 1.00 in    
Sea Level Pressure  
Sea Level Pressure 30.21 in    
Wind  
Wind Speed 8 mph (ESE)    
Max Wind Speed 16 mph    
Max Gust Speed 20 mph    
Visibility 4 miles    
Events Snow    
T = Trace of Precipitation, MM = Missing Value Source: NWS Daily Summary

Daily Weather History Graph

Daily Weather History Graph

Search for Another Location

Airport:

Trip Planner

Search our weather history database for the weather conditions in past years. The results will help you decide how hot, cold, wet, or windy it might be!

Date:

Astronomy

Dec. 08, 2013 Rise Set
Actual Time 7:42 AM CST 4:52 PM CST
Civil Twilight 7:10 AM CST 5:24 PM CST
Nautical Twilight 6:35 AM CST 5:59 PM CST
Astronomical Twilight 6:01 AM CST 6:33 PM CST
Moon 11:57 AM CST (12/8) 11:49 PM CST (12/8)
Length of Visible Light 10h 13m
Length of Day
9h 10m
Waxing Crescent, 40% of the Moon is Illuminated
Dec 8
Waxing Crescent
Dec 9
First Quarter
Dec 17
Full
Dec 25
Last Quarter
Jan 1
New

Hourly Weather History & Observations

Time (CST) Temp. Windchill Dew Point Humidity Pressure Visibility Wind Dir Wind Speed Gust Speed Precip Events Conditions
12:52 AM 9.0 °F -6.6 °F 5.0 °F 84% 30.45 in 6.0 mi ESE 12.7 mph - 0.00 in   Overcast
1:12 AM 9.0 °F -6.6 °F 5.0 °F 84% 30.36 in 2.5 mi ESE 12.7 mph - 0.01 in Snow Light Snow
1:26 AM 9.0 °F -5.9 °F 5.0 °F 84% 30.35 in 3.0 mi ESE 11.5 mph - 0.01 in Snow Light Snow
1:52 AM 9.0 °F -5.1 °F 5.0 °F 84% 30.42 in 3.0 mi ESE 10.4 mph - 0.01 in Snow Light Snow
2:01 AM 9.0 °F -5.9 °F 5.0 °F 84% 30.34 in 2.5 mi ESE 11.5 mph - 0.00 in Snow Light Snow
2:15 AM 9.0 °F -5.9 °F 6.1 °F 88% 30.32 in 1.8 mi ESE 11.5 mph - 0.00 in Snow Light Snow
2:52 AM 10.0 °F -4.5 °F 6.1 °F 84% 30.38 in 1.5 mi ESE 11.5 mph - 0.02 in Snow Light Snow
3:35 AM 10.0 °F -5.2 °F 6.1 °F 84% 30.29 in 2.0 mi ESE 12.7 mph - 0.01 in Snow Light Snow
3:44 AM 10.0 °F -4.5 °F 6.1 °F 84% 30.28 in 1.8 mi ESE 11.5 mph - 0.02 in Snow Light Snow
3:52 AM 10.0 °F -4.5 °F 7.0 °F 87% 30.35 in 1.8 mi ESE 11.5 mph - 0.02 in Snow Light Snow
4:05 AM 10.0 °F -4.5 °F 7.0 °F 87% 30.26 in 2.0 mi ESE 11.5 mph - 0.00 in Snow Light Snow
4:44 AM 10.0 °F -3.7 °F 7.0 °F 87% 30.24 in 3.0 mi ESE 10.4 mph - 0.01 in Snow Light Snow
4:52 AM 10.0 °F -3.7 °F 7.0 °F 87% 30.31 in 2.5 mi ESE 10.4 mph - 0.01 in Snow Light Snow
5:29 AM 10.0 °F -4.5 °F 7.0 °F 87% 30.22 in 1.8 mi ESE 11.5 mph - 0.01 in Snow Light Snow
5:47 AM 10.4 °F -4.8 °F 6.8 °F 85% 30.20 in 2.0 mi ESE 12.7 mph - 0.01 in Snow Light Snow
5:52 AM 10.0 °F -4.5 °F 7.0 °F 87% 30.28 in 3.0 mi ESE 11.5 mph - 0.01 in Snow Light Snow
6:16 AM 10.0 °F -5.2 °F 7.0 °F 87% 30.19 in 2.0 mi ESE 12.7 mph - 0.01 in Snow Light Snow
6:21 AM 10.0 °F -4.5 °F 7.0 °F 87% 30.19 in 1.8 mi ESE 11.5 mph - 0.01 in Snow Light Snow
6:40 AM 10.0 °F -2.9 °F 7.0 °F 87% 30.19 in 2.5 mi ESE 9.2 mph - 0.01 in Snow Light Snow
6:52 AM 10.9 °F -2.6 °F 7.0 °F 84% 30.26 in 2.5 mi ESE 10.4 mph - 0.01 in Snow Light Snow
7:12 AM 10.9 °F -1.8 °F 7.0 °F 84% 30.19 in 3.0 mi ESE 9.2 mph - 0.01 in Snow Light Snow
7:22 AM 10.9 °F -0.8 °F 7.0 °F 84% 30.19 in 2.0 mi ESE 8.1 mph - 0.01 in Snow Light Snow
7:49 AM 10.4 °F -2.4 °F 8.6 °F 92% 30.17 in 1.5 mi ESE 9.2 mph - 0.01 in Snow Light Snow
7:52 AM 10.9 °F -0.8 °F 7.0 °F 84% 30.25 in 1.2 mi ESE 8.1 mph - 0.02 in Snow Light Snow
8:31 AM 10.9 °F -0.8 °F 8.1 °F 88% 30.17 in 2.0 mi ESE 8.1 mph - 0.01 in Snow Light Snow
8:52 AM 10.9 °F -2.6 °F 7.0 °F 84% 30.25 in 1.8 mi ESE 10.4 mph - 0.01 in Snow Light Snow
9:04 AM 10.9 °F -2.6 °F 7.0 °F 84% 30.17 in 1.5 mi ESE 10.4 mph - 0.00 in Snow Light Snow
9:11 AM 10.9 °F -2.6 °F 7.0 °F 84% 30.16 in 1.8 mi ESE 10.4 mph - 0.00 in Snow Light Snow
9:19 AM 10.9 °F -1.8 °F 7.0 °F 84% 30.16 in 2.0 mi ESE 9.2 mph - 0.00 in Snow Light Snow
9:28 AM 10.9 °F -2.6 °F 7.0 °F 84% 30.16 in 1.5 mi ESE 10.4 mph - 0.00 in Snow Light Snow
9:52 AM 12.0 °F -0.4 °F 8.1 °F 84% 30.23 in 1.8 mi ESE 9.2 mph - 0.01 in Snow Light Snow
9:55 AM 12.0 °F 0.5 °F 8.1 °F 84% 30.16 in 2.0 mi ESE 8.1 mph - 0.00 in Snow Light Snow
10:19 AM 12.0 °F -1.3 °F 8.1 °F 84% 30.16 in 1.8 mi ESE 10.4 mph - 0.00 in Snow Light Snow
10:52 AM 12.9 °F 0.7 °F 9.0 °F 84% 30.22 in 2.0 mi East 9.2 mph - 0.01 in Snow Light Snow
11:03 AM 12.9 °F 0.7 °F 9.0 °F 84% 30.14 in 5.0 mi ESE 9.2 mph - 0.00 in Snow Light Snow
11:52 AM 14.0 °F 2.9 °F 9.0 °F 80% 30.18 in 7.0 mi SE 8.1 mph - 0.00 in Snow Light Snow
12:52 PM 14.0 °F 3.9 °F 9.0 °F 80% 30.14 in 6.0 mi SE 6.9 mph - 0.00 in Snow Light Snow
1:01 PM 15.1 °F 6.4 °F 9.0 °F 77% 30.07 in 7.0 mi SE 5.8 mph - 0.00 in   Overcast
1:52 PM 15.1 °F 7.7 °F 9.0 °F 77% 30.12 in 4.0 mi SE 4.6 mph - 0.00 in Snow Light Snow
2:21 PM 16.0 °F 10.4 °F 10.0 °F 77% 30.04 in 4.0 mi SE 3.5 mph - 0.00 in Snow Light Snow
2:52 PM 15.1 °F - 10.0 °F 80% 30.11 in 7.0 mi Calm Calm - 0.00 in   Overcast
3:52 PM 16.0 °F - 10.0 °F 77% 30.11 in 8.0 mi Calm Calm - N/A   Overcast
4:52 PM 15.1 °F 6.4 °F 10.0 °F 80% 30.12 in 10.0 mi NNW 5.8 mph - N/A   Overcast
5:52 PM 15.1 °F 6.4 °F 9.0 °F 77% 30.12 in 10.0 mi NW 5.8 mph - N/A   Overcast
6:52 PM 14.0 °F 5.1 °F 9.0 °F 80% 30.13 in 10.0 mi NW 5.8 mph - N/A   Overcast
7:52 PM 10.9 °F 1.4 °F 7.0 °F 84% 30.17 in 10.0 mi WNW 5.8 mph - N/A   Clear
8:52 PM 8.1 °F -2.0 °F 5.0 °F 87% 30.18 in 10.0 mi West 5.8 mph - N/A   Clear
9:52 PM 1.9 °F -10.6 °F -0.0 °F 91% 30.18 in 10.0 mi West 6.9 mph - N/A   Clear
10:52 PM 3.0 °F -11.5 °F -0.0 °F 87% 30.20 in 10.0 mi WNW 9.2 mph - N/A   Clear
11:52 PM 6.1 °F -11.6 °F 1.9 °F 83% 30.20 in 10.0 mi WNW 15.0 mph - N/A   Clear